Location: Newark
(45.8667°N, 9.7333°E)
Time: 02:03:48
(UTC+00:00)

Vanguard 2 Rocket - Pass Details

Date: 26 January 2020
Orbit: 553 x 3327 km, 32.9° (Epoch: 25 February)

Event Time Altitude Azimuth Distance (km) Brightness Sun altitude
Rises 04:25:18 0° 223° (SW) 2,778 - -25.1°
Reaches altitude 10° 04:28:02 10° 200° (SSW) 2,021 - -24.7°
Exits shadow 04:28:59 13° 188° (S) 1,871 8.4 -24.5°
Maximum altitude 04:30:55 17° 160° (SSE) 1,833 8.7 -24.2°
Drops below altitude 10° 04:34:28 10° 122° (ESE) 2,584 10.1 -23.6°
Sets 04:38:41 0° 103° (ESE) 4,011 11.6 -22.8°
